Zurück zum Katalog

USA 181

AktivMilitärLEO
NORAD 28537·PAYLOAD·🇺🇸 United States

Gestartet Feb 3, 2005 von Cape Canaveral Space Force Station

Loading…

Nächste Überflüge (nächste 24 Stunden)

TLE

VeraltetSource: Mike McCants

Epoche: Sep 5, 2026, 00:45 UTC

1 28537U 05004A   26248.03181173 0.00000000  00000-0  00000-0 0    03
2 28537  63.3938 220.8267 0565010   5.1451 354.8549 13.41279753    09

Verfolge USA 181 in Echtzeit mit AllMySat

Download on the App Store